Miscellaneous Local Product
Issued by NWS Hastings, NE

Home | Current Version | Previous Version | Text Only | Print | Product List | Glossary Off
Versions: 1 2 3 4 5 6 7 8 9 10 11 12 13 14 15 16 17 18 19 20 21 22 23 24 25 26 27 28 29 30 31 32 33 34 35 36 37 38 39 40 41 42 43 44 45 46 47 48 49 50

000
AXUS43 KGID 051002
MISGRI

GID CWA HOURLY WEATHER ROUNDUP
NATIONAL WEATHER SERVICE HASTINGS NE
500 AM CDT WED AUG 05 2015

NOTE: "FAIR" INDICATES FEW OR NO CLOUDS BELOW 12,000 FEET WITH NO
SIGNIFICANT WEATHER AND/OR OBSTRUCTIONS TO VISIBILITY.

...SOUTH CENTRAL NEBRASKA...

CITY           SKY/WX    TMP DP  RH WIND       PRES   REMARKS
GRAND ISLAND   CLOUDY    65  64  97 E3        30.00S
HASTINGS       CLOUDY    64  63  96 CALM      29.99S FOG
KEARNEY        PTCLDY    61  57  88 NE6       30.00S
ORD            MOCLDY    63  62  97 SW3       29.99S
YORK           CLOUDY    66  66 100 E3        29.99S FOG
AURORA         LGT RAIN  66  66 100 N3        29.99F
LEXINGTON      FOG       65  64  97 CALM      30.01F VSB 3/4
HOLDREGE       PTCLDY    60  59  96 CALM      29.99F FOG
HEBRON         CLOUDY    67  65  91 CALM      29.96F

...NEBRASKA PANHANDLE...

CITY           SKY/WX    TMP DP  RH WIND       PRES   REMARKS
CHADRON        CLEAR     60  58  92 CALM      30.02S
ALLIANCE       FOG       55  54  96 E3        30.06S VSB 1/2
SCOTTSBLUFF    FOG       60  60 100 NE5       30.06F VSB 1/4
SIDNEY         CLEAR     54  53  97 W6        30.09F

...WESTERN AND NORTH CENTRAL NEBRASKA...

CITY           SKY/WX    TMP DP  RH WIND       PRES   REMARKS
VALENTINE      NOT AVBL
AINSWORTH      CLOUDY    65  65  99 CALM      30.02F FOG
ONEILL         CLOUDY    66  66  98 SE5       30.00F FOG
BROKEN BOW     CLOUDY    65  64  97 CALM      30.01S FOG
IMPERIAL       CLEAR     58  56  93 NW3       30.03F
NORTH PLATTE   FOG       60  59  96 CALM      30.03S VSB 1/2
MCCOOK         CLEAR     60  58  92 N6        30.01S

...EASTERN NEBRASKA...

CITY           SKY/WX    TMP DP  RH WIND       PRES   REMARKS
NORFOLK        CLOUDY    68  64  87 E3        30.00R
SO SIOUX CITY  CLOUDY    67  62  84 E5        30.00R
TEKAMAH        CLOUDY    67  65  93 CALM      29.97F
COLUMBUS       CLOUDY    66  63  88 E3        29.99S
ALBION         CLOUDY    67  65  94 CALM      30.00S FOG
OMAHA EPPLEY   CLOUDY    68  66  93 S5        29.97F
OFFUTT AFB     CLOUDY    68  67  94 SE6       29.96F
MILLARD        CLOUDY    69  67  93 SE5       29.98R
LINCOLN        CLOUDY    72  68  87 SE7       29.97S
NEBRASKA CITY  CLOUDY    68  67  98 S6        29.97F
BEATRICE       LGT RAIN  69  68  96 SE3       29.98R
FALLS CITY     MOCLDY    69  68  96 E5        29.96F FOG

...NORTHERN KANSAS...

CITY           SKY/WX    TMP DP  RH WIND       PRES   REMARKS
GOODLAND       FOG       57  57 100 NW3       30.04S VSB 1/4
HILL CITY      CLOUDY    67  65  93 NE6       29.97F
NORTON         CLOUDY    64  63  94 N7        29.99R
PHILLIPSBURG   RAIN      68  68 100 N5        29.97F
SMITH CENTER   MOCLDY    64  63  94 NE10      29.96F
HAYS           CLOUDY    70  59  68 NE14      29.96R
RUSSELL        TSTM      66  66 100 VRB3      29.98R FOG
CONCORDIA      RAIN      69  68  96 E7        29.93F FOG
SALINA         CLOUDY    71  68  90 E13       29.90F
TOPEKA         MOCLDY    70  68  93 E6        29.95F



USA.gov is the U.S. government's official web portal to all federal, state and local government web resources and services.